GW0206 Weather Reports


time (UTC)temp
F
wind
direction
speed
knots
gust
knots
rain 1hr
in
rain 24hr
in
rain mn
in
humidity
%
barometer
mb
20260903195507 93 95 3.5 11.3 0.00 0.24 0.24 61 1014.0
20260903195009 93 73 5.2 13.0 0.00 0.24 0.24 60 1014.1
20260903194524 93 92 7.0 13.0 0.00 0.24 0.24 59 1013.9
20260903194014 94 108 6.1 12.2 0.00 0.24 0.24 60 1014.1
20260903193512 94 91 5.2 13.9 0.00 0.24 0.24 58 1014.2
20260903193020 94 61 2.6 14.8 0.00 0.24 0.24 58 1014.6
20260903192511 94 119 6.1 14.8 0.00 0.24 0.24 58 1014.7
20260903192009 94 147 4.3 10.4 0.00 0.24 0.24 59 1014.7
20260903191524 94 98 5.2 14.8 0.00 0.24 0.24 60 1014.7
20260903191010 94 97 7.0 14.8 0.00 0.24 0.24 61 1014.7
20260903190510 94 55 7.0 13.0 0.00 0.24 0.24 60 1014.9
20260903190024 94 95 2.6 11.3 0.00 0.24 0.24 65 1015.1
20260903185513 93 78 5.2 12.2 0.00 0.24 0.24 62 1015.2
20260903185012 93 15 3.5 12.2 0.00 0.24 0.24 63 1015.3
20260903184523 93 57 7.0 10.4 0.00 0.24 0.24 64 1015.5
20260903184013 92 67 4.3 13.0 0.00 0.24 0.24 63 1015.5
20260903183509 92 111 5.2 13.0 0.00 0.24 0.24 64 1015.6
20260903183023 92 96 4.3 10.4 0.00 0.24 0.24 65 1015.7
20260903182510 92 75 6.1 12.2 0.00 0.24 0.24 65 1015.8
20260903182013 92 144 5.2 12.2 0.00 0.24 0.24 66 1015.8
20260903181526 92 111 4.3 12.2 0.00 0.24 0.24 67 1015.9
20260903181011 91 140 6.1 12.2 0.00 0.24 0.24 65 1015.9
20260903180513 91 38 4.3 9.6 0.00 0.24 0.24 65 1015.9
20260903180026 91 92 3.5 8.7 0.00 0.24 0.24 69 1015.9
20260903175514 91 59 3.5 10.4 0.00 0.24 0.24 68 1016.0
20260903175014 90 95 2.6 12.2 0.00 0.24 0.24 70 1016.3
20260903174529 90 148 6.1 12.2 0.00 0.24 0.24 69 1016.3
20260903174015 90 54 6.1 11.3 0.00 0.24 0.24 71 1016.3
20260903173510 89 40 3.5 8.7 0.00 0.24 0.24 72 1016.4
20260903173028 89 49 2.6 8.7 0.00 0.24 0.24 73 1016.4
20260903172514 89 22 2.6 9.6 0.00 0.24 0.24 73 1016.5
20260903172012 88 113 5.2 9.6 0.00 0.24 0.24 75 1016.5
20260903171526 88 5 1.7 7.8 0.00 0.24 0.24 76 1016.6
20260903171011 88 326 2.6 7.8 0.00 0.24 0.24 77 1016.7
20260903170511 87 9 2.6 8.7 0.00 0.24 0.24 76 1016.7
20260903170032 87 15 2.6 8.7 0.00 0.24 0.24 74 1016.8
20260903165517 87 41 2.6 7.8 0.00 0.24 0.24 76 1016.9
20260903165012 86 23 3.5 7.8 0.00 0.24 0.24 76 1017.0
20260903164530 86 36 4.3 8.7 0.00 0.24 0.24 78 1017.0
20260903164003 86 46 4.3 8.7 0.00 0.24 0.24 76 1017.0
20260903163502 86 13 3.5 7.0 0.00 0.24 0.24 77 1017.0
20260903163004 85 53 2.6 6.1 0.00 0.24 0.24 78 1017.0
20260903162501 85 325 1.7 7.8 0.00 0.24 0.24 81 1017.1
20260903162002 84 26 2.6 7.8 0.00 0.24 0.24 80 1017.1
20260903161502 83 13 3.5 7.8 0.00 0.24 0.24 79 1017.1
20260903161001 83 57 3.5 7.0 0.00 0.24 0.24 80 1017.2
20260903160502 82 23 2.6 7.8 0.00 0.24 0.24 82 1017.2
20260903160009 82 348 1.7 7.8 0.00 0.24 0.24 79 1017.3
20260903155503 82 15 2.6 7.8 0.00 0.24 0.24 82 1017.4
20260903155002 81 26 3.5 7.0 0.00 0.24 0.24 80 1017.3
20260903154505 81 350 2.6 7.8 0.00 0.24 0.24 82 1017.3
20260903154005 81 5 1.7 7.8 0.00 0.24 0.24 81 1017.4
20260903153501 81 31 1.7 7.8 0.00 0.24 0.24 81 1017.4
20260903153003 81 348 3.5 7.8 0.00 0.24 0.24 83 1017.4
20260903152504 81 334 2.6 9.6 0.00 0.24 0.24 83 1017.5
20260903152005 80 5 2.6 9.6 0.00 0.24 0.24 85 1017.5
20260903151502 79 9 3.5 7.8 0.00 0.24 0.24 85 1017.5
20260903151002 78 327 0.9 7.0 0.00 0.24 0.24 91 1017.4
20260903150503 77 13 2.6 7.0 0.00 0.24 0.24 91 1017.4
20260903150009 76 326 0.9 7.0 0.00 0.24 0.24 91 1017.4
20260903145503 76 360 2.6 7.8 0.00 0.24 0.24 90 1017.5
20260903145007 75 11 3.5 7.8 0.00 0.24 0.24 90 1017.5
20260903144518 75 53 2.6 6.1 0.00 0.24 0.24 92 1017.4
20260903144001 75 84 1.7 5.2 0.00 0.24 0.24 94 1017.5
20260903143503 75 355 1.7 5.2 0.00 0.24 0.24 94 1017.5
20260903143016 74 47 1.7 4.3 0.00 0.24 0.24 95 1017.4
20260903142505 74 22 1.7 3.5 0.00 0.24 0.24 95 1017.4
20260903142002 73 342 0.9 3.5 0.00 0.24 0.24 96 1017.4
20260903141504 73 11 1.7 3.5 0.00 0.24 0.24 96 1017.4
20260903141006 72 28 1.7 3.5 0.00 0.24 0.24 96 1017.3
20260903140507 72 355 0.0 3.5 0.00 0.24 0.24 96 1017.3
20260903140006 72 338 0.9 3.5 0.00 0.24 0.24 96 1017.3
20260903135502 72 337 0.9 2.6 0.01 0.24 0.24 95 1017.2
20260903135002 71 16 0.0 2.6 0.02 0.24 0.24 95 1017.1
20260903134507 71 346 0.0 2.6 0.08 0.24 0.24 96 1017.3
20260903134005 71 294 0.0 5.2 0.18 0.24 0.24 95 1017.2
20260903133503 70 284 1.7 6.1 0.22 0.24 0.24 95 1017.3
20260903133004 70 348 1.7 6.1 0.24 0.24 0.24 95 1017.4
20260903132503 70 360 2.6 5.2 0.24 0.24 0.24 95 1017.6
20260903132004 70 355 0.0 5.2 0.24 0.24 0.24 94 1017.7
20260903131510 70 26 1.7 5.2 0.24 0.24 0.24 94 1017.9
20260903131004 70 344 0.9 3.5 0.24 0.24 0.24 94 1018.0
20260903130503 70 31 0.0 7.0 0.24 0.24 0.24 93 1018.2
20260903130016 70 324 2.6 7.0 0.24 0.24 0.24 93 1017.7
20260903125510 70 348 2.6 8.7 0.23 0.23 0.23 92 1017.8
20260903125003 71 317 4.3 8.7 0.22 0.22 0.22 90 1017.6
20260903124507 71 304 2.6 6.1 0.16 0.16 0.16 90 1017.9
20260903124002 72 5 0.9 2.6 0.06 0.06 0.06 89 1018.3
20260903123504 72 309 0.9 3.5 0.02 0.02 0.02 87 1018.2
20260903123010 72 289 0.0 5.2 0.00 0.00 0.00 87 1018.3
20260903122504 72 315 2.6 5.2 0.00 0.00 0.00 86 1018.1
20260903122003 72 264 1.7 5.2 0.00 0.00 0.00 87 1018.0
20260903121505 72 294 1.7 6.1 0.00 0.00 0.00 86 1018.0
20260903121002 72 289 1.7 6.1 0.00 0.00 0.00 86 1018.0
20260903120509 72 248 2.6 6.1 0.00 0.00 0.00 86 1017.9
20260903120013 73 242 1.7 6.1 0.00 0.00 0.00 86 1017.9
20260903115503 73 229 1.7 7.8 0.00 0.00 0.00 86 1018.0
20260903115003 73 209 1.7 7.8 0.00 0.00 0.00 86 1017.8
20260903114515 73 236 3.5 7.0 0.00 0.00 0.00 86 1017.6
20260903114013 73 237 2.6 7.8 0.00 0.00 0.00 87 1017.6
20260903113503 73 242 4.3 7.8 0.00 0.00 0.00 87 1017.7
20260903113012 73 234 2.6 7.8 0.00 0.00 0.00 87 1017.8
20260903112514 73 240 5.2 7.8 0.00 0.00 0.00 87 1017.8
20260903112003 73 224 3.5 6.1 0.00 0.00 0.00 88 1017.5
20260903111508 73 272 1.7 8.7 0.00 0.00 0.00 89 1017.3
20260903111008 73 255 2.6 11.3 0.00 0.00 0.00 90 1017.3
20260903110502 73 234 5.2 11.3 0.00 0.00 0.00 92 1017.3
20260903110007 73 196 2.6 7.0 0.00 0.00 0.00 93 1017.1
20260903105503 73 198 1.7 7.0 0.00 0.00 0.00 93 1017.2
20260903105007 73 234 3.5 6.1 0.00 0.00 0.00 93 1017.0
20260903104514 73 360 0.9 6.1 0.00 0.00 0.00 93 1016.6
20260903104005 73 56 1.7 6.1 0.00 0.00 0.00 93 1016.6
20260903103506 73 85 0.9 3.5 0.00 0.00 0.00 93 1016.6
20260903103026 73 26 0.9 3.5 0.00 0.00 0.00 93 1016.6
20260903102512 73 26 0.9 3.5 0.00 0.00 0.00 93 1016.6
20260903102005 73 51 0.0 2.6 0.00 0.00 0.00 93 1016.7
20260903101520 73 50 0.9 2.6 0.00 0.00 0.00 93 1016.7
20260903101011 73 56 0.0 1.7 0.00 0.00 0.00 93 1016.7
20260903100503 73 46 0.0 1.7 0.00 0.00 0.00 93 1016.8
20260903100007 73 46 0.0 2.6 0.00 0.00 0.00 93 1016.8
20260903095503 73 46 0.0 2.6 0.00 0.00 0.00 93 1016.7
20260903095002 73 78 0.0 1.7 0.00 0.00 0.00 93 1016.6
20260903094511 73 78 0.0 1.7 0.00 0.00 0.00 93 1016.5
20260903094006 73 78 0.0 1.7 0.00 0.00 0.00 92 1016.4
20260903093506 73 78 0.0 1.7 0.00 0.00 0.00 93 1016.4
20260903093029 73 78 0.0 1.7 0.00 0.00 0.00 93 1016.4
20260903092503 73 78 0.0 1.7 0.00 0.00 0.00 93 1016.4
20260903092013 73 78 0.0 1.7 0.00 0.00 0.00 93 1016.5
20260903091527 73 78 0.0 1.7 0.00 0.00 0.00 93 1016.5
20260903091003 73 78 0.0 2.6 0.00 0.00 0.00 92 1016.5
20260903090506 73 78 0.0 2.6 0.00 0.00 0.00 92 1016.3
20260903090029 73 51 0.0 1.7 0.00 0.00 0.00 92 1016.3
20260903085520 73 51 0.0 0.9 0.00 0.00 0.00 92 1016.3
20260903085003 73 51 0.0 1.7 0.00 0.00 0.00 92 1016.2
20260903084509 73 51 0.0 1.7 0.00 0.00 0.00 92 1016.2
20260903084006 73 51 0.0 1.7 0.00 0.00 0.00 92 1016.3
20260903083504 73 51 0.0 2.6 0.00 0.00 0.00 91 1016.3
20260903083013 74 51 0.0 2.6 0.00 0.00 0.00 91 1016.3
20260903081534 74 51 0.0 1.7 0.00 0.00 0.00 90 1016.5
20260903081009 74 51 0.0 1.7 0.00 0.00 0.00 90 1016.5
20260903080514 74 51 0.0 1.7 0.00 0.00 0.00 90 1016.7
20260903080029 74 51 0.0 1.7 0.00 0.00 0.00 89 1016.6
20260903075511 74 188 0.0 1.7 0.00 0.00 0.00 89 1016.7
20260903075010 75 188 0.0 1.7 0.00 0.00 0.00 89 1016.7
20260903074534 75 188 0.0 1.7 0.00 0.00 0.00 88 1016.6
20260903074006 75 188 0.0 0.9 0.00 0.00 0.00 88 1016.7
20260903073510 75 188 0.0 0.9 0.00 0.00 0.00 88 1016.6
20260903073016 75 188 0.0 0.9 0.00 0.00 0.00 88 1016.5
20260903072506 76 188 0.0 0.9 0.00 0.00 0.00 87 1016.4
20260903072011 76 188 0.0 2.6 0.00 0.00 0.00 87 1016.4
20260903071519 76 188 0.0 2.6 0.00 0.00 0.00 87 1016.5
20260903071007 76 117 0.0 3.5 0.00 0.00 0.00 87 1016.5
20260903070513 76 185 0.0 3.5 0.00 0.00 0.00 87 1016.5
20260903070021 76 166 0.0 4.3 0.00 0.00 0.00 87 1016.5
20260903065515 76 166 1.7 4.3 0.00 0.00 0.00 87 1016.9
20260903065018 76 167 0.9 4.3 0.00 0.00 0.00 87 1016.9
20260903064515 76 71 0.0 0.9 0.00 0.00 0.00 87 1016.6
20260903064010 76 71 0.0 1.7 0.00 0.00 0.00 86 1016.5
20260903063518 76 71 0.0 1.7 0.00 0.00 0.00 86 1016.4
20260903063031 76 71 0.0 2.6 0.00 0.00 0.00 86 1016.4
20260903062509 76 71 0.0 2.6 0.00 0.00 0.00 85 1016.3
20260903062014 76 71 0.9 2.6 0.00 0.00 0.00 85 1016.2
20260903061531 77 78 0.9 2.6 0.00 0.00 0.00 85 1016.3
20260903061009 77 65 0.9 2.6 0.00 0.00 0.00 84 1016.2
20260903060507 77 65 0.9 5.2 0.00 0.00 0.00 84 1016.2
20260903060021 77 71 0.9 5.2 0.00 0.00 0.00 84 1016.1
20260903055513 77 75 0.9 3.5 0.00 0.00 0.00 84 1016.1
20260903055008 77 55 1.7 5.2 0.00 0.00 0.00 84 1016.2
20260903054527 77 62 2.6 5.2 0.00 0.00 0.00 84 1016.2
20260903054014 77 80 0.9 3.5 0.00 0.00 0.00 84 1016.3
20260903053516 77 144 0.9 3.5 0.00 0.00 0.00 84 1016.3
20260903053028 77 76 0.0 6.1 0.00 0.00 0.00 83 1016.2
20260903052515 77 83 2.6 6.1 0.00 0.00 0.00 83 1016.2
20260903052017 77 100 0.9 7.8 0.00 0.00 0.00 83 1016.2
20260903051533 77 77 1.7 7.8 0.00 0.00 0.00 83 1016.2
20260903051017 77 59 1.7 5.2 0.00 0.00 0.00 83 1016.1
20260903050516 77 39 1.7 5.2 0.00 0.00 0.00 83 1016.0
20260903050033 78 54 0.9 3.5 0.00 0.00 0.00 83 1016.0
20260903045508 78 78 0.9 3.5 0.00 0.00 0.00 83 1016.0
20260903045007 78 53 0.0 4.3 0.00 0.00 0.00 83 1015.9
20260903044526 78 92 1.7 4.3 0.00 0.00 0.00 83 1015.8
20260903044014 78 28 0.9 5.2 0.00 0.00 0.00 83 1015.7
20260903043512 78 64 1.7 6.1 0.00 0.00 0.00 83 1015.7
20260903043031 78 42 2.6 6.1 0.00 0.00 0.00 83 1015.6
20260903042504 78 50 1.7 7.0 0.00 0.00 0.00 83 1015.5
20260903042002 78 42 2.6 7.0 0.00 0.00 0.00 83 1015.5
20260903041511 78 57 3.5 7.0 0.00 0.00 0.00 83 1015.5
20260903041003 78 57 2.6 6.1 0.00 0.00 0.00 83 1015.6
20260903040506 78 42 2.6 7.0 0.00 0.00 0.00 83 1015.5
20260903040016 78 60 2.6 7.0 0.00 0.00 0.00 83 1015.5
20260903035503 78 44 2.6 7.0 0.00 0.00 0.00 83 1015.4
20260903035006 79 35 3.5 7.0 0.00 0.00 0.00 83 1015.3
20260903034523 79 76 2.6 6.1 0.00 0.00 0.00 83 1015.3
20260903034012 79 38 2.6 6.1 0.00 0.00 0.00 83 1015.3
20260903033503 79 33 1.7 6.1 0.00 0.00 0.00 83 1015.3
20260903033013 79 72 1.7 6.1 0.00 0.00 0.00 83 1015.4
20260903032508 79 56 2.6 4.3 0.00 0.00 0.00 84 1015.5
20260903032016 79 32 1.7 4.3 0.00 0.00 0.00 84 1015.7
20260903031521 79 49 1.7 4.3 0.00 0.00 0.00 84 1015.8
20260903031004 79 52 1.7 4.3 0.00 0.00 0.00 84 1015.9
20260903030503 79 42 1.7 3.5 0.00 0.00 0.00 84 1016.0
20260903030009 79 57 1.7 3.5 0.00 0.00 0.00 84 1016.1
20260903025507 79 44 0.9 4.3 0.00 0.00 0.00 84 1016.2
20260903025006 79 42 0.9 4.3 0.00 0.00 0.00 84 1016.2
20260903024513 79 31 2.6 5.2 0.00 0.00 0.00 84 1016.2
20260903024004 79 53 2.6 5.2 0.00 0.00 0.00 84 1016.2
20260903023509 79 61 2.6 6.1 0.00 0.00 0.00 84 1016.2
20260903023028 79 37 2.6 7.8 0.00 0.00 0.00 84 1016.2
20260903022511 80 61 3.5 7.8 0.00 0.00 0.00 84 1016.1
20260903022015 80 51 3.5 7.0 0.00 0.00 0.00 84 1016.1
20260903021537 80 61 3.5 7.8 0.00 0.00 0.00 84 1016.2
20260903021018 80 52 2.6 7.8 0.00 0.00 0.00 84 1016.1
20260903020510 80 61 2.6 7.0 0.00 0.00 0.00 84 1016.2
20260903020006 80 72 3.5 6.1 0.00 0.00 0.00 84 1016.1
20260903015506 80 46 3.5 6.1 0.00 0.00 0.00 84 1016.2
20260903015003 80 63 2.6 7.0 0.00 0.00 0.00 83 1016.3
20260903014514 81 61 2.6 7.0 0.00 0.00 0.00 83 1016.2
20260903014008 81 77 2.6 7.0 0.00 0.00 0.00 82 1016.3
20260903013508 81 59 2.6 6.1 0.00 0.00 0.00 82 1016.3
20260903013013 81 74 2.6 6.1 0.00 0.00 0.00 82 1016.4
20260903012508 81 38 2.6 6.1 0.00 0.00 0.00 81 1016.4
20260903012013 81 53 2.6 5.2 0.00 0.00 0.00 81 1016.4
20260903011527 81 56 2.6 6.1 0.00 0.00 0.00 80 1016.3
20260903011006 82 55 2.6 6.1 0.00 0.00 0.00 80 1016.4
20260903010509 82 38 2.6 4.3 0.00 0.00 0.00 79 1016.4
20260903010033 82 63 1.7 5.2 0.00 0.00 0.00 79 1016.4
20260903005514 82 66 2.6 5.2 0.00 0.00 0.00 79 1016.2
20260903005007 82 360 2.6 4.3 0.00 0.00 0.00 78 1016.1
20260903004530 83 61 2.6 4.3 0.00 0.00 0.00 78 1016.1
20260903004003 83 66 2.6 4.3 0.00 0.00 0.00 77 1016.1
20260903003503 83 48 2.6 5.2 0.00 0.00 0.00 77 1016.0
20260903003018 83 51 1.7 5.2 0.00 0.00 0.00 76 1015.9
20260903002508 84 59 2.6 5.2 0.00 0.00 0.00 76 1015.8
20260903002008 84 53 2.6 5.2 0.00 0.00 0.00 75 1015.7
20260903001514 85 59 1.7 5.2 0.00 0.00 0.00 74 1015.6
20260903001009 85 59 2.6 5.2 0.00 0.00 0.00 74 1015.7
20260903000514 85 94 3.5 5.2 0.00 0.00 0.00 73 1015.6
20260903000030 86 50 3.5 6.1 0.00 0.00 0.00 73 1015.6
20260902235509 86 80 3.5 6.1 0.00 0.00 0.00 72 1015.7
20260902235014 86 43 2.6 5.2 0.00 0.00 0.00 72 1015.7
20260902234532 87 45 2.6 4.3 0.00 0.00 0.00 71 1015.8
20260902234007 87 59 2.6 4.3 0.00 0.00 0.00 71 1015.8
20260902233511 88 69 1.7 4.3 0.00 0.00 0.00 71 1015.8
20260902233031 88 36 1.7 3.5 0.00 0.00 0.00 70 1015.8
20260902232510 88 65 1.7 4.3 0.00 0.00 0.00 70 1015.8
20260902232012 88 46 1.7 5.2 0.00 0.00 0.00 69 1015.7
20260902231516 89 46 2.6 5.2 0.00 0.00 0.00 68 1015.8
20260902231009 89 33 1.7 6.1 0.00 0.00 0.00 68 1015.9
20260902230510 89 63 1.7 7.8 0.00 0.00 0.00 68 1015.9
20260902230024 90 67 2.6 7.8 0.00 0.00 0.00 67 1015.9
20260902225518 90 51 2.6 6.1 0.00 0.00 0.00 66 1016.0
20260902225012 90 30 2.6 5.2 0.00 0.00 0.00 67 1015.9
20260902224519 90 67 1.7 10.4 0.00 0.00 0.00 66 1015.8
20260902224013 90 41 3.5 10.4 0.00 0.00 0.00 65 1015.8
20260902223517 90 69 3.5 8.7 0.00 0.00 0.00 65 1015.7
20260902223032 90 63 3.5 9.6 0.00 0.00 0.00 67 1015.8
20260902222511 90 78 3.5 9.6 0.00 0.00 0.00 66 1015.7
20260902222012 90 74 3.5 9.6 0.00 0.00 0.00 65 1015.7
20260902221530 90 31 2.6 8.7 0.00 0.00 0.00 66 1015.7
20260902221017 90 46 3.5 8.7 0.00 0.00 0.00 66 1015.7
20260902220510 91 33 3.5 9.6 0.00 0.00 0.00 64 1015.7
20260902220023 91 64 3.5 9.6 0.00 0.00 0.00 65 1015.8
20260902215509 91 105 2.6 8.7 0.00 0.00 0.00 64 1015.8
20260902215009 91 75 4.3 11.3 0.00 0.00 0.00 63 1015.8
20260902214529 90 28 4.3 11.3 0.00 0.00 0.00 64 1015.9
20260902214015 91 68 3.5 11.3 0.00 0.00 0.00 63 1016.0
20260902213511 91 97 5.2 11.3 0.00 0.00 0.00 63 1016.0
20260902213026 91 55 5.2 11.3 0.00 0.00 0.00 61 1016.0
20260902212515 91 46 5.2 11.3 0.00 0.00 0.00 62 1016.1
20260902212016 91 53 4.3 13.0 0.00 0.00 0.00 61 1016.1
20260902211536 92 77 4.3 13.0 0.00 0.00 0.00 62 1016.2
20260902211017 92 63 5.2 10.4 0.00 0.00 0.00 60 1016.2
20260902210515 93 91 3.5 11.3 0.00 0.00 0.00 61 1016.2
20260902210039 92 60 5.2 11.3 0.00 0.00 0.00 59 1016.3
20260902205512 92 109 3.5 10.4 0.00 0.00 0.00 63 1016.3
20260902205012 92 19 4.3 10.4 0.00 0.00 0.00 62 1016.4
20260902204526 92 39 3.5 10.4 0.00 0.00 0.00 63 1016.4
20260902204014 92 38 3.5 10.4 0.00 0.00 0.00 63 1016.5
20260902203511 93 53 4.3 11.3 0.00 0.00 0.00 61 1016.5
20260902203027 93 36 3.5 11.3 0.00 0.00 0.00 62 1016.5
20260902202512 93 5 5.2 10.4 0.00 0.00 0.00 61 1016.6
20260902202014 93 53 2.6 12.2 0.00 0.00 0.00 60 1016.7
20260902201529 94 68 7.0 12.2 0.00 0.00 0.00 61 1016.7
20260902201019 94 67 4.3 9.6 0.00 0.00 0.00 61 1016.7
20260902200522 94 65 3.5 9.6 0.00 0.00 0.00 61 1016.8
20260902200025 94 49 3.5 7.8 0.00 0.00 0.00 61 1016.8